#timestamp,LO_Frequency,Hit,StdDev 
1516795215.6,286046996.6,P
1516795235.5,286046999.6,N
1516795255.3,286046997.4,N
1516795275.1,286046997.4,N
1516795295.9,286046996.6,N
1516795315.7,286046996.9,N
1516795335.6,286046999.3,N
1516795355.4,286046998.6,N
1516795375.2,286046999.3,N
1516795395.1,286046996.9,N
1516795396.0,286046996.9,N
1516795415.8,286046997.7,N
1516795435.7,286046997.3,N
1516795455.5,286046997.1,N
1516795475.3,286047001.1,N
1516795495.2,286046998.3,N
1516795515.0,286046999.1,N
1516795515.9,286046999.1,N
1516795535.7,286046996.6,N
1516795555.6,286046995.7,Y
1516795575.4,286046995.1,P
1516795595.3,286046994.9,P
1516795615.1,286046996.2,N
1516795616.0,286046996.2,N
1516795635.8,286046996.3,Y
1516795655.7,286047001.2,P
1516795675.5,286047000.3,N
1516795695.4,286047000.0,N
1516795715.2,286047000.3,N
1516795735.0,286047000.5,N
1516795735.9,286047000.5,N
1516795755.8,286046999.9,N
1516795775.6,286046999.8,N
1516795795.4,286047000.1,N
1516795815.3,286047000.5,N
1516795835.1,286047001.2,N
1516795855.9,286046999.0,N
1516795875.7,286046998.1,N
1516795895.5,286047000.2,N
1516795915.4,286047000.2,N
1516795935.2,286047000.3,N
1516795955.0,286047000.5,N
1516795955.9,286047000.5,N
1516795975.8,286046999.7,N
1516795995.6,286047002.2,N
1516796015.5,286047002.3,N
1516796035.3,286047000.1,N
1516796055.1,286047002.0,N
1516796075.9,286047001.9,N
1516796095.7,286047002.4,N
1516796115.5,286047002.4,N
1516796135.4,286047001.8,N
1516796155.2,286047002.6,N
1516796175.1,286047001.8,N
1516796176.0,286047001.8,N
1516796195.8,286047002.1,N
1516796215.6,286047002.7,N
1516796235.5,286047001.4,N
1516796255.3,286047000.6,N
1516796275.2,286046996.8,N
1516796295.9,286046997.4,N
1516796315.7,286046996.8,N
1516796335.6,286046994.9,Y
1516796355.4,286046996.0,P
1516796375.2,286046995.5,N
1516796395.1,286046996.1,N
1516796396.0,286046996.1,N
1516796415.8,286046997.6,N
1516796435.7,286046995.3,N
1516796455.5,286046995.9,N
1516796475.3,286046991.9,Y
1516796495.2,286046997.4,P
1516796515.0,286046997.5,P
1516796515.9,286046997.5,P
1516796535.8,286046995.1,Y
1516796555.6,286047000.6,P
1516796575.4,286046998.7,N
1516796595.3,286046999.0,N
1516796615.1,286047001.1,N
1516796635.8,286047002.7,N
1516796655.7,286047001.4,N
1516796675.5,286046999.9,N
1516796695.4,286047000.2,N
1516796715.2,286047001.2,N
1516796735.0,286046998.6,N
1516796735.9,286046998.6,N
1516796755.8,286046996.8,N
1516796775.6,286046995.5,N
1516796795.4,286046996.4,N
1516796815.3,286046997.3,N
1516796835.1,286046996.0,N
1516796855.9,286046995.8,N
1516796875.7,286046995.1,N
1516796895.5,286046998.0,N
1516796915.4,286046995.0,N
1516796935.2,286046995.4,N
1516796955.1,286046997.5,N
1516796956.0,286046997.5,N
1516796975.8,286046997.4,N
1516796995.6,286046994.9,N
1516797015.5,286046997.0,N
1516797035.3,286046997.6,N
1516797055.1,286046995.8,N
1516797075.9,286046993.5,Y
1516797095.7,286046996.5,P
1516797115.6,286046997.0,P
1516797135.4,286046997.2,P
1516797155.3,286046995.6,Y
1516797175.1,286047001.0,P
1516797176.0,286047001.0,N
1516797195.8,286046999.9,N
1516797215.7,286046998.1,N
1516797235.5,286046996.7,N
1516797255.3,286046996.8,N
1516797275.2,286046997.6,N
1516797295.0,286046997.3,N
1516797295.9,286046997.3,N
1516797315.8,286046996.8,N
1516797335.6,286046995.3,N
1516797355.4,286046995.2,N
1516797375.3,286046995.8,N
1516797395.1,286046993.7,Y
1516797415.9,286046996.9,P
1516797435.7,286046997.9,P
1516797455.5,286046996.0,P
1516797475.4,286046995.4,Y
1516797495.2,286046996.9,P
1516797515.1,286046998.3,P
1516797516.0,286046998.3,N
1516797535.8,286046998.8,N
1516797555.6,286047000.8,N
1516797575.5,286046999.4,N
1516797595.3,286046999.6,N
1516797615.2,286046999.3,N
1516797635.9,286046998.8,N
1516797655.7,286046998.6,N
1516797675.6,286046998.7,N
1516797695.4,286046999.0,N
1516797715.2,286047001.2,N
1516797735.1,286047001.9,N
1516797736.0,286047001.9,N
1516797755.8,286047001.3,N
1516797775.7,286047001.9,N
1516797795.5,286046999.8,N
1516797815.3,286047000.5,N
1516797835.2,286047000.8,N
1516797855.0,286046998.1,N
1516797855.9,286046998.1,N
1516797875.7,286047000.7,N
1516797895.6,286047001.1,N
1516797915.4,286047001.0,N
1516797935.3,286047002.6,N
1516797955.1,286047002.6,N
1516797956.0,286047002.6,N
1516797975.8,286047001.6,N
1516797995.7,286047002.5,N
1516798015.5,286047000.1,N
1516798035.3,286046998.5,N
1516798055.2,286047000.8,N
1516798075.0,286047000.2,N
1516798075.9,286047000.2,N
1516798095.8,286046998.5,N
1516798115.6,286046998.9,N
1516798135.4,286047000.7,N
1516798155.3,286046998.5,N
1516798175.1,286047000.0,N
1516798195.9,286047000.1,N
1516798215.7,286047000.6,N
1516798235.5,286047001.2,N
1516798255.4,286046998.2,N
1516798275.2,286046998.2,N
1516798295.0,286047001.0,N
1516798295.9,286047001.0,N
1516798315.8,286047000.3,N
1516798335.6,286047002.3,N
1516798355.5,286047002.8,N
1516798375.3,286047002.4,N
1516798395.1,286047000.2,N
1516798415.9,286047000.0,N
1516798435.7,286047000.1,N
1516798455.5,286047001.2,N
1516798475.4,286047001.2,N
1516798495.2,286047001.2,N
1516798515.1,286046998.8,N
1516798516.0,286046998.8,N
1516798535.8,286046998.4,N
1516798555.6,286046998.7,N
1516798575.5,286046998.4,N
1516798595.3,286046998.3,N
1516798615.1,286046998.7,N
1516798635.9,286047000.8,N
1516798655.7,286047000.6,N
1516798675.6,286047000.3,N
1516798695.4,286047000.7,N
1516798715.2,286047001.0,N
1516798735.1,286047000.1,N
1516798736.0,286047000.1,N
1516798755.8,286046999.7,N
1516798775.7,286047002.8,N
1516798795.5,286046999.8,N
